Location: Błonie
(52.1971°N, 20.6200°E)
Time: 12:48:03
(UTC+01:00)

ISS - Pass Details

Date: 01 February 2019
Orbit: 403 x 411 km, 51.6° (Epoch: 23 February)

Event Time Altitude Azimuth Distance (km) Brightness Sun altitude
Rises 17:18:05 0° 261° (W) 2,332 2.2 -8.5°
Reaches altitude 10° 17:20:10 10° 261° (W) 1,474 0.7 -8.8°
Maximum altitude 17:23:28 80° 174° (S) 421 -3.8 -9.3°
Enters shadow 17:26:17 14° 88° (E) 1,275 -1.9 -9.7°
